Hourly Data Report for October 12, 2015

All times are specified in Local Standard Time (LST). Add 1 hour to adjust for Daylight Saving Time where and when it is observed.

OTTAWA INTL A
ONTARIO

45°19'00.000" N
75°40'00.000" W
114.90 m
6106001
71628
YOW

Download Data

Hourly Data (October 2015)
Hourly Data Report for October 12, 2015
Temp Definition
°C
Dew Point Temp Definition
°C
Rel Hum Definition
%
Wind Dir Definition
10's deg

Wind Spd Definition
km/h
Visibility Definition
km
Stn Press Definition
kPa
Hmdx Definition


Wind Chill Definition


Weather Definition


TIME
00:00 Legend Double Dagger 11.9 8.8 81 18 9 24.1 99.16     LegendNANA
01:00 Legend Double Dagger 12.3 8.8 79 19 13 24.1 99.17     Clear
02:00 Legend Double Dagger 12.2 8.7 79 20 13 24.1 99.14     LegendNANA
03:00 Legend Double Dagger 12.0 8.9 81 21 10 24.1 99.13     LegendNANA
04:00 Legend Double Dagger 11.5 9.1 85 21 10 24.1 99.12     Clear
05:00 Legend Double Dagger 11.9 9.7 86 19 11 24.1 99.14     LegendNANA
06:00 Legend Double Dagger 11.8 9.2 84 19 12 24.1 99.15     LegendNANA
07:00 Legend Double Dagger 12.3 9.2 81 20 16 24.1 99.17     Clear
08:00 Legend Double Dagger 14.7 10.0 73 21 13 24.1 99.19     LegendNANA
09:00 Legend Double Dagger 17.0 10.7 66 21 14 24.1 99.18     LegendNANA
10:00 Legend Double Dagger 18.9 11.1 60 20 19 24.1 99.15     Mainly Clear
11:00 Legend Double Dagger 20.8 11.8 56 20 16 24.1 99.11     LegendNANA
12:00 Legend Double Dagger 21.5 11.4 52 18 19 24.1 99.06     LegendNANA
13:00 Legend Double Dagger 22.5 11.4 49 21 18 24.1 98.97     Mainly Clear
14:00 Legend Double Dagger 23.1 11.3 47 18 19 24.1 98.90 25   LegendNANA
15:00 Legend Double Dagger 22.8 10.1 44 18 19 24.1 98.84     LegendNANA
16:00 Legend Double Dagger 21.6 8.7 43 19 21 24.1 98.84     Mainly Clear
17:00 Legend Double Dagger 19.9 8.4 47 19 23 24.1 98.83     LegendNANA
18:00 Legend Double Dagger 17.6 9.1 57 18 10 24.1 98.81     LegendNANA
19:00 Legend Double Dagger 16.4 8.7 60 17 9 24.1 98.79     Mostly Cloudy
20:00 Legend Double Dagger 15.6 8.7 63 15 8 24.1 98.77     LegendNANA
21:00 Legend Double Dagger 14.9 9.1 68 13 13 24.1 98.72     LegendNANA
22:00 Legend Double Dagger 16.0 8.3 60 15 17 24.1 98.67     Mostly Cloudy
23:00 Legend Double Dagger 14.5 7.6 63 16 13 24.1 98.61     LegendNANA

Notes on Data Quality.

Legend

  • E = Estimated
  • M = Missing
  • NA = Not Available
  • ‡ = Partner data that is not subject to review by the National Climate Archives
Date modified: